Luxor, Egypt

12:41 AM EET on December 05, 2016 (GMT +0200)
Luxor International

Weather History for HELX - October, 2011

Change the Weather History Date:

Monday, October 3, 2011

  Actual Average Record
Temperature  
Mean Temperature 86 °F -  
Max Temperature 97 °F 90 °F 107 °F (2010)
Min Temperature 74 °F 64 °F 62 °F (2000)
Cooling Degree Days 20    
Growing Degree Days 36 (Base 50)    
Moisture  
Dew Point 56 °F    
Average Humidity 35    
Maximum Humidity 47    
Minimum Humidity 19    
Precipitation  
Precipitation 0.00 in 0.00 in - ()
Sea Level Pressure  
Sea Level Pressure 29.89 in    
Wind  
Wind Speed 3 mph ()    
Max Wind Speed 7 mph    
Max Gust Speed -    
Visibility 6.0 miles    
Events      
Averages and records for this station are not official NWS values.
T = Trace of Precipitation, MM = Missing Value Source: Averaged Metar Reports

Daily Weather History Graph

Daily Weather History Graph

Search for Another Location

Airport or City:

Trip Planner

Search our weather history database for the weather conditions in past years. The results will help you decide how hot, cold, wet, or windy it might be!

Date:

Astronomy

Oct. 03, 2011 Rise Set
Actual Time 5:42 AM EET 5:34 PM EET
Civil Twilight 5:19 AM EET 5:57 PM EET
Nautical Twilight 4:52 AM EET 6:23 PM EET
Astronomical Twilight 4:25 AM EET 6:50 PM EET
Moon 11:51 AM EET (10/3) 10:45 PM EET (10/3)
Length of Visible Light 12h 38m
Length of Day
11h 52m
Waxing Crescent, 42% of the Moon is Illuminated
Oct 3
Waxing Crescent
Oct 4
First Quarter
Oct 12
Full
Oct 20
Last Quarter
Oct 26
New

Hourly Weather History & Observations

Time (EET) Temp. Heat Index Dew Point Humidity Pressure Visibility Wind Dir Wind Speed Gust Speed Precip Events Conditions
2:00 AM 76 °F - 54 °F 36% 29.87 in 6 mi Calm Calm - -  
2:00 AM 75.2 °F - 53.6 °F 47% 29.89 in - Calm Calm - N/A   Clear
5:00 AM 75.2 °F - 51.8 °F 44% 29.89 in - ESE 3.5 mph - N/A   Clear
6:00 AM 75.2 °F - 51.8 °F 44% 29.92 in - East 2.3 mph - N/A   Clear
7:00 AM 77.0 °F - 53.6 °F 44% 29.92 in - East 4.6 mph - N/A   Clear
8:00 AM 81 °F - 54 °F 29% 29.93 in 6 mi ENE 4.6 mph - -  
8:00 AM 80.6 °F 80.3 °F 53.6 °F 39% 29.95 in - ENE 4.6 mph - N/A   Clear
9:00 AM 84.2 °F 83.8 °F 59.0 °F 42% 29.95 in - NE 2.3 mph - N/A   Clear
10:00 AM 91.4 °F 89.9 °F 57.2 °F 31% 29.95 in - NNE 5.8 mph - N/A   Clear
12:00 PM 93.2 °F 91.9 °F 57.2 °F 30% 29.92 in - NNE 6.9 mph - N/A   Clear
1:00 PM 95.0 °F 94.4 °F 59.0 °F 30% 29.89 in - North 5.8 mph - N/A   Clear
2:00 PM 97 °F - 59 °F 19% 29.84 in 6 mi NW 6.9 mph - -  
2:00 PM 96.8 °F 96.2 °F 59.0 °F 28% 29.86 in - NW 6.9 mph - N/A   Clear
3:00 PM 96.8 °F 96.2 °F 59.0 °F 28% 29.83 in - NNW 5.8 mph - N/A   Clear
4:00 PM 96.8 °F 95.1 °F 55.4 °F 25% 29.83 in - NNW 5.8 mph - N/A   Clear
5:00 PM 93.2 °F 91.3 °F 55.4 °F 28% 29.83 in - WNW 3.5 mph - N/A   Clear
6:00 PM 89.6 °F 88.1 °F 57.2 °F 33% 29.86 in - Calm Calm - N/A   Clear
7:00 PM 86.0 °F 85.4 °F 59.0 °F 40% 29.89 in - WNW 4.6 mph - N/A   Clear
8:00 PM 84 °F - 58 °F 31% 29.88 in 6 mi West 2.3 mph - -  
8:00 PM 84.2 °F 83.8 °F 59.0 °F 42% 29.89 in - West 2.3 mph - N/A   Clear
9:00 PM 84.2 °F 83.0 °F 55.4 °F 37% 29.92 in - SSE 2.3 mph - N/A   Clear
11:00 PM 80.6 °F 80.3 °F 53.6 °F 39% 29.95 in - South 2.3 mph - N/A   Clear